AirNav   Air Wisconsin pilot careers
 
 835 users online  

6F7 Manning Field Airport
Jefferson, Texas, USA

GOING TO JEFFERSON?


FAA INFORMATION EFFECTIVE 26 APRIL 2018

Location

FAA Identifier: 6F7
Lat/Long: 32-49-37.2000N / 094-21-16.3000W
32-49.620000N / 094-21.271667W
32.8270000 / -94.3545278
(estimated)
Elevation: 320 ft. / 98 m (estimated)
Variation: 05E (1985)
From city: 4 miles N of JEFFERSON, TX
Time zone: UTC -5 (UTC -6 during Standard Time)
Zip code: 75657

Airport Operations

Airport use: Open to the public
Activation date: 08/1979
Control tower: no
ARTCC: FORT WORTH CENTER
FSS: FORT WORTH FLIGHT SERVICE STATION
NOTAMs facility: FTW (NOTAM-D service available)
Attendance: CONTINUOUS
Wind indicator: yes
Segmented circle: no

Airport Communications

CTAF: 122.9
WX AWOS-3 at ASL (19 nm S): 118.675 (903-938-2060)

Nearby radio navigation aids

VOR radial/distance  VOR name  Freq  Var
EICr270/27.7BELCHER VORTAC117.4007E
GGGr032/31.8GREGG COUNTY VORTAC112.3007E

 
NDB name  Hdg/Dist  Freq  Var  ID
ATLANTA202/18.634704EATA .- - .-
CARTHAGE352/38.933204ERPF .-. .--. ..-.

Airport Services

Parking: hangars and tiedowns
Bottled oxygen: NONE
Bulk oxygen: NONE

Runway Information

Runway 7/25

Dimensions: 3600 x 100 ft. / 1097 x 30 m
Surface: turf, in good condition
RWY HAS A MOWED WITH OF 30 FEET.
RUNWAY 7  RUNWAY 25
Latitude: 32-49.524848N32-49.714153N
Longitude: 094-21.605702W094-20.939098W
Elevation: 308.0 ft.233.0 ft.
Gradient: 2.1% UP
Traffic pattern: leftleft
Runway heading: 066 magnetic, 071 true246 magnetic, 251 true
Obstructions: 10 ft. road4 ft. fence

Airport Ownership and Management from official FAA records

Ownership: Privately-owned
Owner: ROGER MANNING
4702 N. US 59
JEFFERSON, TX 75657
Phone 903-665-3532
Manager: ROGER MANNING
4702 N. US 59
JEFFERSON, TX 75657
Phone 903-665-3532

Airport Operational Statistics

Aircraft based on the field: 7
Single engine airplanes: 5
Ultralights: 2
    
Aircraft operations: avg 25/week *
77% local general aviation
23% transient general aviation
* for 12-month period ending 09 June 2016

Additional Remarks

ULTRALIGHT ACTIVITY ON & INVOF ARPT.
RY 07/25 HAS A 30 FT RISE IN ELEVATION FM THLD OF RY 25 TO THLD OF RY 07.
NO LINE OF SIGHT BTN RY ENDS.
RWY 07 28 FT POWER POLE 88 FT FM THLD - 162 FT L

Instrument Procedures

There are no published instrument procedures at 6F7.

Some nearby airports with instrument procedures:

3F4 - Vivian Airport (17 nm E)
KATA - Hall-Miller Municipal Airport (18 nm NE)
KASL - Harrison County Airport (19 nm S)
KJXI - Fox Stephens Field - Gilmer Municipal Airport (31 nm W)
KGGG - East Texas Regional Airport (32 nm SW)
 
Loc | Ops | Rwys | IFR | FBO | Links
Com | Nav | Svcs | Stats | Notes

AirNav Hotels Sweepstakes
 
Area around 6F7 (Manning Field Airport)
 
Road maps at: MapQuest Bing Google
 
Aerial photo
WARNING: Photo may not be current or correct
Aerial photo of 6F7 (Manning Field Airport)
Photo by Carl Hennigan
Photo taken 09-Feb-2008

Do you have a better or more recent aerial photo of Manning Field Airport that you would like to share? If so, please send us your photo.

 
Sectional chart

 
Airport distance calculator
Flying to Manning Field Airport? Find the distance to fly.

From to 6F7

Sunrise and sunset
Times for 26-Apr-2018
 Local
(UTC-5)
 Zulu
(UTC)
Morning civil twilight06:1011:10
Sunrise06:3611:36
Sunset19:5400:54
Evening civil twilight20:2001:20

Current date and time
Zulu (UTC)  27-Apr-2018 02:44:32
Local (UTC-5)  26-Apr-2018 21:44:32
 
METAR
KASL 
19nm S 
270235Z AUTO 00000KT 10SM SCT047 12/10 A3001 RMK AO1 T01150100
KJXI 
31nm W 
270235Z AUTO 00000KT 10SM BKN049 14/12 A3000 RMK AO2 T01400121
KGGG 
32nm SW 
270153Z 36003KT 10SM BKN048 16/13 A2997 RMK AO2 SLP148 T01560133
KOSA 
35nm NW 
270235Z AUTO 36003KT 10SM CLR 15/10 A3002 RMK AO1 T01490102
KSHV 
35nm SE 
270156Z 00000KT 10SM FEW050 FEW260 14/11 A2996 RMK AO2 SLP145 T01390111
KDTN 
35nm SE 
270153Z 00000KT 10SM CLR 16/12 A2997 RMK AO2 SLP146 T01560117
TAF
KGGG 
32nm SW 
261722Z 2618/2718 32010KT P6SM SCT030 TEMPO 2618/2620 BKN025 FM270000 35004KT P6SM SCT120 BKN250 FM271500 33008KT P6SM SKC
KSHV 
35nm SE 
261722Z 2618/2718 33008KT P6SM SCT035 TEMPO 2618/2620 OVC020 FM270000 33004KT P6SM SCT100 BKN250 FM271600 33008KT P6SM SCT040
KBAD 
40nm SE 
270207Z 2702/2808 34009KT 9999 SCT050 QNH2994INS BECMG 2802/2803 29006KT 9999 FEW030 QNH3000INS TX25/2721Z TN11/2712Z LAST NO AMDS AFT 2704 NEXT 2710
NOTAMs
Click for the latest NOTAMs
NOTAMs are issued by the DoD/FAA and will open in a separate window not controlled by AirNav.

 

 
 

Would you like to see your business listed on this page?

 If your business provides an interesting product or service to pilots, flight crews, aircraft, or users of the Manning Field Airport, you should consider listing it here.  To start the listing process, click on the button below
 
Add a business
 

Other Pages about Manning Field Airport

Update a link
 
Copyright © AirNav, LLC. All rights reserved. Privacy Policy  Contact